| time (UTC) | temp F | wind direction | speed MPH | gust MPH | rain 1hr in | rain 24hr in | rain mn in | humidity % | barometer mb |
| 20260903060501 | 79 | 102 | 0.0 | 0.0 | 0.00 | 0.00 | 0.00 | 98 | 1014.3 |
| 20260903055955 | 79 | 102 | 0.0 | 0.0 | 0.00 | 0.00 | 0.00 | 98 | 1014.4 |
| 20260903055449 | 79 | 102 | 0.0 | 0.0 | 0.00 | 0.00 | 0.00 | 98 | 1014.5 |
| 20260903054943 | 79 | 102 | 0.0 | 0.0 | 0.00 | 0.00 | 0.00 | 98 | 1014.7 |
| 20260903054437 | 79 | 102 | 0.0 | 0.0 | 0.00 | 0.00 | 0.00 | 98 | 1014.8 |
| 20260903053931 | 79 | 102 | 0.0 | 0.0 | 0.00 | 0.00 | 0.00 | 98 | 1014.6 |
| 20260903053425 | 79 | 102 | 0.0 | 0.0 | 0.00 | 0.00 | 0.00 | 98 | 1014.7 |
| 20260903052919 | 80 | 102 | 0.0 | 0.0 | 0.00 | 0.00 | 0.00 | 98 | 1014.7 |
| 20260903052413 | 80 | 102 | 0.0 | 0.0 | 0.00 | 0.00 | 0.00 | 98 | 1014.8 |
| 20260903051907 | 80 | 102 | 0.0 | 0.0 | 0.00 | 0.00 | 0.00 | 98 | 1014.8 |
| 20260903051401 | 80 | 102 | 0.0 | 0.0 | 0.00 | 0.00 | 0.00 | 98 | 1014.9 |
| 20260903050855 | 80 | 102 | 0.0 | 0.0 | 0.00 | 0.00 | 0.00 | 98 | 1014.9 |
| 20260903050349 | 80 | 102 | 0.0 | 0.0 | 0.00 | 0.00 | 0.00 | 98 | 1014.9 |
| 20260903045843 | 80 | 102 | 0.0 | 0.0 | 0.00 | 0.00 | 0.00 | 99 | 1014.9 |
| 20260903045338 | 79 | 102 | 0.0 | 0.0 | 0.00 | 0.00 | 0.00 | 98 | 1014.9 |
| 20260903044831 | 79 | 102 | 0.0 | 0.0 | 0.00 | 0.00 | 0.00 | 98 | 1015.1 |
| 20260903044325 | 79 | 102 | 0.0 | 0.0 | 0.00 | 0.00 | 0.00 | 97 | 1015.1 |
| 20260903043819 | 79 | 102 | 0.0 | 0.0 | 0.00 | 0.00 | 0.00 | 97 | 1015.1 |
| 20260903043313 | 79 | 102 | 0.0 | 0.0 | 0.00 | 0.00 | 0.00 | 97 | 1015.2 |
| 20260903042807 | 79 | 102 | 0.0 | 0.0 | 0.00 | 0.00 | 0.00 | 97 | 1015.2 |
| 20260903042301 | 80 | 102 | 0.0 | 0.0 | 0.00 | 0.00 | 0.00 | 97 | 1015.2 |
| 20260903041800 | 80 | 102 | 0.0 | 1.0 | 0.00 | 0.00 | 0.00 | 97 | 1015.1 |
| 20260903041249 | 80 | 102 | 0.0 | 1.0 | 0.00 | 0.00 | 0.00 | 96 | 1015.1 |
| 20260903040743 | 80 | 102 | 0.0 | 0.0 | 0.00 | 0.00 | 0.00 | 96 | 1015.1 |
| 20260903040237 | 80 | 102 | 0.0 | 0.0 | 0.00 | 0.00 | 0.00 | 96 | 1015.2 |
| 20260903035954 | 80 | 102 | 0.0 | 1.0 | 0.00 | 0.00 | 0.00 | 96 | 1015.3 |
| 20260903035225 | 80 | 102 | 0.0 | 1.0 | 0.00 | 0.00 | 0.00 | 96 | 1015.3 |
| 20260903034719 | 81 | 102 | 0.0 | 0.0 | 0.00 | 0.00 | 0.00 | 96 | 1015.3 |
| 20260903034213 | 81 | 102 | 0.0 | 0.0 | 0.00 | 0.00 | 0.00 | 96 | 1015.3 |
| 20260903033707 | 81 | 102 | 0.0 | 0.0 | 0.00 | 0.00 | 0.00 | 96 | 1015.4 |
| 20260903033201 | 81 | 102 | 0.0 | 1.0 | 0.00 | 0.00 | 0.00 | 96 | 1015.4 |
| 20260903032914 | 81 | 102 | 0.0 | 1.0 | 0.00 | 0.00 | 0.00 | 95 | 1015.4 |
| 20260903032149 | 81 | 102 | 0.0 | 1.0 | 0.00 | 0.00 | 0.00 | 95 | 1015.3 |
| 20260903031643 | 81 | 102 | 0.0 | 1.0 | 0.00 | 0.00 | 0.00 | 95 | 1015.4 |
| 20260903031137 | 82 | 102 | 0.0 | 1.0 | 0.00 | 0.00 | 0.00 | 95 | 1015.4 |
| 20260903030631 | 82 | 102 | 0.0 | 1.0 | 0.00 | 0.00 | 0.00 | 94 | 1015.4 |
| 20260903030125 | 82 | 102 | 0.0 | 3.0 | 0.00 | 0.00 | 0.00 | 94 | 1015.4 |
| 20260903025619 | 82 | 101 | 0.0 | 3.0 | 0.00 | 0.00 | 0.00 | 94 | 1015.4 |
| 20260903025114 | 82 | 102 | 0.0 | 1.0 | 0.00 | 0.00 | 0.00 | 94 | 1015.3 |
| 20260903024608 | 82 | 101 | 0.0 | 0.0 | 0.00 | 0.00 | 0.00 | 95 | 1015.2 |
| 20260903024101 | 82 | 102 | 0.0 | 0.0 | 0.00 | 0.00 | 0.00 | 95 | 1015.1 |
| 20260903023555 | 82 | 102 | 0.0 | 0.0 | 0.00 | 0.00 | 0.00 | 94 | 1015.1 |
| 20260903023049 | 82 | 102 | 0.0 | 0.0 | 0.00 | 0.00 | 0.00 | 95 | 1014.9 |
| 20260903022543 | 82 | 102 | 0.0 | 0.0 | 0.00 | 0.00 | 0.00 | 94 | 1014.9 |
| 20260903022037 | 82 | 102 | 0.0 | 0.0 | 0.00 | 0.00 | 0.00 | 94 | 1014.9 |
| 20260903021532 | 82 | 102 | 0.0 | 0.0 | 0.00 | 0.00 | 0.00 | 94 | 1014.8 |
| 20260903021026 | 82 | 101 | 0.0 | 0.0 | 0.00 | 0.00 | 0.00 | 93 | 1014.7 |
| 20260903020519 | 82 | 101 | 0.0 | 0.0 | 0.00 | 0.00 | 0.00 | 93 | 1014.7 |
| 20260903020013 | 82 | 101 | 0.0 | 0.0 | 0.00 | 0.00 | 0.00 | 94 | 1014.6 |
| 20260903015507 | 82 | 101 | 0.0 | 0.0 | 0.00 | 0.00 | 0.00 | 93 | 1014.6 |
| 20260903015001 | 82 | 101 | 0.0 | 0.0 | 0.00 | 0.00 | 0.00 | 93 | 1014.5 |
| 20260903014455 | 82 | 101 | 0.0 | 0.0 | 0.00 | 0.00 | 0.00 | 93 | 1014.5 |
| 20260903013950 | 82 | 101 | 0.0 | 0.0 | 0.00 | 0.00 | 0.00 | 93 | 1014.3 |
| 20260903013443 | 82 | 101 | 0.0 | 0.0 | 0.00 | 0.00 | 0.00 | 92 | 1014.3 |
| 20260903012937 | 82 | 101 | 0.0 | 0.0 | 0.00 | 0.00 | 0.00 | 92 | 1014.4 |
| 20260903012431 | 82 | 101 | 0.0 | 1.0 | 0.00 | 0.00 | 0.00 | 92 | 1014.2 |
| 20260903011925 | 83 | 101 | 0.0 | 1.0 | 0.00 | 0.00 | 0.00 | 92 | 1014.3 |
| 20260903011426 | 83 | 101 | 0.0 | 1.0 | 0.00 | 0.00 | 0.00 | 92 | 1014.3 |
| 20260903011311 | 83 | 101 | 0.0 | 1.0 | 0.00 | 0.00 | 0.00 | 91 | 1014.4 |
| 20260903011306 | 83 | 101 | 0.0 | 1.0 | 0.00 | 0.00 | 0.00 | 89 | 1014.5 |
| 20260903011211 | 83 | 101 | 0.0 | 1.0 | 0.00 | 0.00 | 0.00 | 91 | 1014.3 |
| 20260903010829 | 83 | 101 | 0.0 | 1.0 | 0.00 | 0.00 | 0.00 | 91 | 1014.5 |
| 20260903010707 | 83 | 101 | 0.0 | 1.0 | 0.00 | 0.00 | 0.00 | 90 | 1014.4 |
| 20260903004919 | 83 | 101 | 0.0 | 1.0 | 0.00 | 0.00 | 0.00 | 89 | 1014.5 |
| 20260903004419 | 83 | 101 | 0.0 | 0.0 | 0.00 | 0.00 | 0.00 | 89 | 1014.6 |
| 20260903003922 | 83 | 101 | 0.0 | 1.0 | 0.00 | 0.00 | 0.00 | 89 | 1014.5 |
| 20260903003419 | 83 | 101 | 0.0 | 1.0 | 0.00 | 0.00 | 0.00 | 89 | 1014.6 |
| 20260903003144 | 84 | 101 | 0.0 | 1.0 | 0.00 | 0.00 | 0.00 | 88 | 1014.6 |
| 20260903002416 | 84 | 101 | 0.0 | 3.0 | 0.00 | 0.00 | 0.00 | 88 | 1014.6 |
| 20260903001916 | 84 | 100 | 0.0 | 1.0 | 0.00 | 0.00 | 0.00 | 88 | 1014.5 |
| 20260903001422 | 84 | 100 | 0.0 | 1.0 | 0.00 | 0.00 | 0.00 | 87 | 1014.5 |
| 20260903000914 | 85 | 100 | 0.0 | 3.0 | 0.00 | 0.00 | 0.00 | 87 | 1014.4 |
| 20260903000414 | 85 | 99 | 0.0 | 3.0 | 0.00 | 0.00 | 0.00 | 87 | 1014.3 |
| 20260902235915 | 85 | 101 | 1.0 | 5.0 | 0.00 | 0.00 | 0.00 | 87 | 1014.3 |
| 20260902235415 | 85 | 100 | 1.0 | 5.0 | 0.00 | 0.00 | 0.00 | 86 | 1014.3 |
| 20260902234915 | 85 | 104 | 1.0 | 5.0 | 0.00 | 0.00 | 0.00 | 85 | 1014.2 |
| 20260902234409 | 85 | 103 | 1.0 | 3.0 | 0.00 | 0.00 | 0.00 | 85 | 1014.1 |
| 20260902234112 | 85 | 97 | 3.0 | 5.0 | 0.00 | 0.00 | 0.00 | 85 | 1014.1 |
| 20260902233957 | 85 | 100 | 1.0 | 5.0 | 0.00 | 0.00 | 0.00 | 85 | 1014.3 |
| 20260902232851 | 85 | 81 | 1.0 | 5.0 | 0.00 | 0.00 | 0.00 | 84 | 1014.2 |
| 20260902232345 | 85 | 110 | 1.0 | 3.0 | 0.00 | 0.00 | 0.00 | 84 | 1014.0 |
| 20260902231839 | 85 | 118 | 0.0 | 3.0 | 0.00 | 0.00 | 0.00 | 84 | 1014.2 |
| 20260902231334 | 85 | 119 | 0.0 | 4.0 | 0.00 | 0.00 | 0.00 | 84 | 1014.3 |
| 20260902230827 | 85 | 118 | 0.0 | 4.0 | 0.00 | 0.00 | 0.00 | 84 | 1014.4 |
| 20260902230322 | 85 | 110 | 0.0 | 3.0 | 0.00 | 0.00 | 0.00 | 84 | 1014.2 |
| 20260902225822 | 85 | 110 | 0.0 | 0.0 | 0.00 | 0.00 | 0.00 | 84 | 1014.4 |
| 20260902225322 | 85 | 110 | 0.0 | 1.0 | 0.00 | 0.00 | 0.00 | 83 | 1014.5 |
| 20260902224823 | 85 | 110 | 0.0 | 3.0 | 0.00 | 0.00 | 0.00 | 83 | 1014.5 |
| 20260902224545 | 85 | 110 | 0.0 | 3.0 | 0.00 | 0.00 | 0.00 | 83 | 1014.4 |
| 20260902223822 | 85 | 111 | 0.0 | 1.0 | 0.00 | 0.00 | 0.00 | 83 | 1014.4 |
| 20260902223325 | 85 | 111 | 1.0 | 3.0 | 0.00 | 0.00 | 0.00 | 83 | 1014.4 |
| 20260902223049 | 86 | 106 | 1.0 | 4.0 | 0.00 | 0.00 | 0.00 | 82 | 1014.3 |
| 20260902222321 | 86 | 105 | 1.0 | 5.0 | 0.00 | 0.00 | 0.00 | 81 | 1014.6 |
| 20260902222043 | 86 | 106 | 1.0 | 5.0 | 0.00 | 0.00 | 0.00 | 81 | 1014.7 |
| 20260902221318 | 86 | 77 | 3.0 | 6.0 | 0.00 | 0.00 | 0.00 | 81 | 1014.6 |
| 20260902220817 | 86 | 75 | 3.0 | 6.0 | 0.00 | 0.00 | 0.00 | 81 | 1014.5 |
| 20260902220537 | 86 | 323 | 4.0 | 6.0 | 0.00 | 0.00 | 0.00 | 81 | 1014.5 |
| 20260902215819 | 86 | 344 | 4.0 | 10.0 | 0.00 | 0.00 | 0.00 | 81 | 1014.7 |
| 20260902215531 | 85 | 309 | 4.0 | 10.0 | 0.00 | 0.00 | 0.00 | 82 | 1014.7 |
| 20260902214815 | 85 | 23 | 4.0 | 9.0 | 0.00 | 0.00 | 0.00 | 82 | 1014.7 |
| 20260902214534 | 85 | 78 | 4.0 | 10.0 | 0.00 | 0.00 | 0.00 | 82 | 1014.9 |
| 20260902213814 | 85 | 30 | 4.0 | 10.0 | 0.00 | 0.00 | 0.00 | 81 | 1014.8 |
| 20260902213315 | 86 | 34 | 4.0 | 10.0 | 0.00 | 0.00 | 0.00 | 82 | 1014.5 |
| 20260902212815 | 86 | 42 | 5.0 | 10.0 | 0.00 | 0.00 | 0.00 | 79 | 1014.6 |
| 20260902212315 | 86 | 75 | 5.0 | 10.0 | 0.00 | 0.00 | 0.00 | 79 | 1014.8 |
| 20260902211815 | 87 | 61 | 5.0 | 13.0 | 0.00 | 0.00 | 0.00 | 78 | 1014.7 |
| 20260902211539 | 87 | 0 | 6.0 | 13.0 | 0.00 | 0.00 | 0.00 | 78 | 1014.9 |
| 20260902210809 | 87 | 66 | 6.0 | 13.0 | 0.00 | 0.00 | 0.00 | 78 | 1014.9 |
| 20260902210311 | 87 | 12 | 5.0 | 13.0 | 0.00 | 0.00 | 0.00 | 78 | 1015.0 |
| 20260902205811 | 88 | 42 | 5.0 | 14.0 | 0.00 | 0.00 | 0.00 | 78 | 1015.0 |
| 20260902205311 | 90 | 88 | 5.0 | 14.0 | 0.00 | 0.00 | 0.00 | 75 | 1014.9 |
| 20260902204809 | 92 | 29 | 4.0 | 9.0 | 0.00 | 0.00 | 0.00 | 69 | 1014.8 |
| 20260902204532 | 92 | 267 | 4.0 | 9.0 | 0.00 | 0.00 | 0.00 | 68 | 1014.6 |
| 20260902204316 | 92 | 276 | 4.0 | 9.0 | 0.00 | 0.00 | 0.00 | 70 | 1014.7 |
| 20260902203308 | 92 | 34 | 4.0 | 8.0 | 0.00 | 0.00 | 0.00 | 70 | 1014.9 |
| 20260902202809 | 92 | 294 | 4.0 | 6.0 | 0.00 | 0.00 | 0.00 | 72 | 1014.8 |
| 20260902202308 | 91 | 271 | 4.0 | 6.0 | 0.00 | 0.00 | 0.00 | 72 | 1014.7 |
| 20260902201801 | 91 | 81 | 3.0 | 6.0 | 0.00 | 0.00 | 0.00 | 73 | 1014.8 |
| 20260902201254 | 91 | 246 | 3.0 | 4.0 | 0.00 | 0.00 | 0.00 | 76 | 1015.0 |
| 20260902200748 | 91 | 245 | 3.0 | 5.0 | 0.00 | 0.00 | 0.00 | 75 | 1015.0 |
| 20260902200243 | 91 | 268 | 3.0 | 5.0 | 0.00 | 0.00 | 0.00 | 77 | 1015.1 |
| 20260902195741 | 91 | 270 | 3.0 | 4.0 | 0.00 | 0.00 | 0.00 | 76 | 1015.1 |
| 20260902195505 | 92 | 207 | 3.0 | 6.0 | 0.00 | 0.00 | 0.00 | 78 | 1015.3 |
| 20260902194741 | 92 | 214 | 5.0 | 16.0 | 0.00 | 0.00 | 0.00 | 78 | 1015.3 |
| 20260902194241 | 92 | 244 | 6.0 | 16.0 | 0.00 | 0.00 | 0.00 | 75 | 1015.1 |
| 20260902193741 | 92 | 256 | 5.0 | 10.0 | 0.00 | 0.00 | 0.00 | 73 | 1015.1 |
| 20260902193241 | 92 | 310 | 4.0 | 10.0 | 0.00 | 0.00 | 0.00 | 73 | 1015.1 |
| 20260902192740 | 91 | 293 | 4.0 | 9.0 | 0.00 | 0.00 | 0.00 | 71 | 1015.1 |
| 20260902192237 | 92 | 184 | 5.0 | 8.0 | 0.00 | 0.00 | 0.00 | 72 | 1015.2 |
| 20260902191735 | 92 | 322 | 3.0 | 8.0 | 0.00 | 0.00 | 0.00 | 71 | 1015.3 |
| 20260902191237 | 93 | 319 | 3.0 | 8.0 | 0.00 | 0.00 | 0.00 | 70 | 1015.4 |
| 20260902190737 | 93 | 267 | 3.0 | 9.0 | 0.00 | 0.00 | 0.00 | 68 | 1015.5 |
| 20260902190501 | 93 | 80 | 3.0 | 9.0 | 0.00 | 0.00 | 0.00 | 66 | 1015.4 |
| 20260902185736 | 93 | 308 | 3.0 | 8.0 | 0.00 | 0.00 | 0.00 | 65 | 1015.5 |
| 20260902185236 | 93 | 264 | 3.0 | 4.0 | 0.00 | 0.00 | 0.00 | 68 | 1015.5 |
| 20260902184735 | 93 | 312 | 4.0 | 9.0 | 0.00 | 0.00 | 0.00 | 67 | 1015.6 |
| 20260902184236 | 93 | 67 | 4.0 | 9.0 | 0.00 | 0.00 | 0.00 | 67 | 1015.7 |
| 20260902183730 | 93 | 72 | 4.0 | 8.0 | 0.00 | 0.00 | 0.00 | 67 | 1015.8 |
| 20260902183225 | 93 | 274 | 4.0 | 10.0 | 0.00 | 0.00 | 0.00 | 67 | 1015.8 |
| 20260902182719 | 93 | 54 | 3.0 | 10.0 | 0.00 | 0.00 | 0.00 | 65 | 1015.9 |
| 20260902182212 | 92 | 343 | 3.0 | 8.0 | 0.00 | 0.00 | 0.00 | 66 | 1015.9 |
| 20260902181706 | 93 | 252 | 3.0 | 8.0 | 0.00 | 0.00 | 0.00 | 64 | 1015.9 |
| 20260902181200 | 92 | 284 | 3.0 | 8.0 | 0.00 | 0.00 | 0.00 | 66 | 1015.9 |
| 20260902180654 | 92 | 52 | 3.0 | 8.0 | 0.00 | 0.00 | 0.00 | 64 | 1016.0 |
| 20260902180413 | 92 | 312 | 3.0 | 6.0 | 0.00 | 0.00 | 0.00 | 66 | 1016.0 |
| 20260902175643 | 93 | 304 | 1.0 | 6.0 | 0.00 | 0.00 | 0.00 | 65 | 1016.0 |
| 20260902175137 | 92 | 151 | 1.0 | 6.0 | 0.00 | 0.00 | 0.00 | 67 | 1016.0 |
| 20260902174630 | 92 | 343 | 3.0 | 8.0 | 0.00 | 0.00 | 0.00 | 68 | 1016.1 |
| 20260902174124 | 92 | 15 | 3.0 | 8.0 | 0.00 | 0.00 | 0.00 | 69 | 1016.2 |
| 20260902173617 | 92 | 253 | 1.0 | 4.0 | 0.00 | 0.00 | 0.00 | 70 | 1016.2 |
| 20260902173112 | 92 | 246 | 1.0 | 5.0 | 0.00 | 0.00 | 0.00 | 70 | 1016.2 |
| 20260902172606 | 92 | 246 | 3.0 | 9.0 | 0.00 | 0.00 | 0.00 | 71 | 1016.3 |
| 20260902172100 | 91 | 73 | 3.0 | 9.0 | 0.00 | 0.00 | 0.00 | 70 | 1016.4 |
| 20260902171554 | 91 | 42 | 3.0 | 9.0 | 0.00 | 0.00 | 0.00 | 70 | 1016.5 |
| 20260902171048 | 92 | 293 | 1.0 | 9.0 | 0.00 | 0.00 | 0.00 | 71 | 1016.6 |
| 20260902170542 | 91 | 139 | 1.0 | 5.0 | 0.00 | 0.00 | 0.00 | 77 | 1016.6 |
| 20260902170036 | 90 | 230 | 3.0 | 5.0 | 0.00 | 0.00 | 0.00 | 74 | 1016.7 |
| 20260902165530 | 91 | 311 | 1.0 | 5.0 | 0.00 | 0.00 | 0.00 | 76 | 1016.9 |
| 20260902165024 | 90 | 111 | 1.0 | 6.0 | 0.00 | 0.00 | 0.00 | 76 | 1016.9 |
| 20260902164518 | 91 | 312 | 1.0 | 6.0 | 0.00 | 0.00 | 0.00 | 74 | 1017.1 |
| 20260902164012 | 91 | 249 | 1.0 | 5.0 | 0.00 | 0.00 | 0.00 | 77 | 1017.1 |
| 20260902163506 | 90 | 310 | 1.0 | 5.0 | 0.00 | 0.00 | 0.00 | 79 | 1017.2 |
| 20260902163224 | 89 | 292 | 3.0 | 5.0 | 0.00 | 0.00 | 0.00 | 80 | 1017.4 |
| 20260902162455 | 88 | 357 | 3.0 | 6.0 | 0.00 | 0.00 | 0.00 | 84 | 1017.3 |
| 20260902161948 | 87 | 255 | 3.0 | 6.0 | 0.00 | 0.00 | 0.00 | 84 | 1017.4 |
| 20260902161705 | 85 | 304 | 3.0 | 6.0 | 0.00 | 0.00 | 0.00 | 86 | 1017.4 |
| 20260902160936 | 85 | 83 | 3.0 | 5.0 | 0.00 | 0.00 | 0.00 | 89 | 1017.5 |
| 20260902160654 | 84 | 26 | 3.0 | 6.0 | 0.00 | 0.00 | 0.00 | 89 | 1017.6 |
| 20260902155924 | 84 | 78 | 3.0 | 6.0 | 0.00 | 0.00 | 0.00 | 90 | 1017.6 |
| 20260902155641 | 84 | 289 | 3.0 | 6.0 | 0.00 | 0.00 | 0.00 | 89 | 1017.6 |
| 20260902154912 | 85 | 298 | 3.0 | 6.0 | 0.00 | 0.00 | 0.00 | 90 | 1017.6 |
| 20260902153900 | 86 | 88 | 3.0 | 6.0 | 0.00 | 0.00 | 0.00 | 88 | 1017.4 |
| 20260902153354 | 86 | 217 | 1.0 | 6.0 | 0.00 | 0.00 | 0.00 | 88 | 1017.5 |
| 20260902152847 | 85 | 310 | 1.0 | 5.0 | 0.00 | 0.00 | 0.00 | 91 | 1017.3 |
| 20260902152341 | 84 | 310 | 1.0 | 5.0 | 0.00 | 0.00 | 0.00 | 93 | 1017.2 |
| 20260902151836 | 84 | 291 | 1.0 | 5.0 | 0.00 | 0.00 | 0.00 | 99 | 1017.2 |
| 20260902151330 | 83 | 193 | 1.0 | 5.0 | 0.00 | 0.00 | 0.00 | 98 | 1017.3 |
| 20260902150823 | 84 | 210 | 1.0 | 5.0 | 0.00 | 0.00 | 0.00 | 100 | 1017.4 |
| 20260902150318 | 83 | 272 | 3.0 | 5.0 | 0.00 | 0.00 | 0.00 | 100 | 1017.4 |
| 20260902145812 | 83 | 31 | 3.0 | 5.0 | 0.00 | 0.00 | 0.00 | 99 | 1017.3 |
| 20260902145307 | 83 | 321 | 1.0 | 5.0 | 0.00 | 0.00 | 0.00 | 100 | 1017.3 |
| 20260902145018 | 83 | 283 | 3.0 | 8.0 | 0.00 | 0.00 | 0.00 | 100 | 1017.3 |
| 20260902144254 | 83 | 295 | 1.0 | 8.0 | 0.00 | 0.00 | 0.00 | 100 | 1017.3 |
| 20260902144223 | 83 | 326 | 1.0 | 5.0 | 0.00 | 0.00 | 0.00 | 100 | 1017.2 |
| 20260902143838 | 83 | 303 | 3.0 | 5.0 | 0.00 | 0.00 | 0.00 | 100 | 1017.3 |
| 20260902143011 | 83 | 289 | 1.0 | 5.0 | 0.00 | 0.00 | 0.00 | 100 | 1017.1 |
| 20260902142242 | 82 | 282 | 1.0 | 4.0 | 0.00 | 0.00 | 0.00 | 100 | 1017.1 |
| 20260902141742 | 82 | 168 | 1.0 | 4.0 | 0.00 | 0.00 | 0.00 | 100 | 1017.2 |
| 20260902141241 | 82 | 141 | 1.0 | 4.0 | 0.00 | 0.00 | 0.00 | 100 | 1016.9 |
| 20260902141005 | 82 | 275 | 1.0 | 4.0 | 0.00 | 0.00 | 0.00 | 100 | 1017.1 |
| 20260902140239 | 81 | 170 | 3.0 | 5.0 | 0.00 | 0.00 | 0.00 | 100 | 1017.1 |
| 20260902135738 | 81 | 290 | 1.0 | 5.0 | 0.00 | 0.00 | 0.00 | 100 | 1017.0 |
| 20260902135237 | 81 | 189 | 1.0 | 4.0 | 0.00 | 0.00 | 0.00 | 100 | 1017.0 |
| 20260902134738 | 81 | 177 | 0.0 | 4.0 | 0.00 | 0.00 | 0.00 | 100 | 1016.9 |
| 20260902134238 | 81 | 290 | 0.0 | 4.0 | 0.00 | 0.00 | 0.00 | 100 | 1016.8 |
| 20260902133735 | 81 | 177 | 0.0 | 3.0 | 0.00 | 0.00 | 0.00 | 100 | 1016.8 |
| 20260902133233 | 80 | 190 | 1.0 | 4.0 | 0.00 | 0.00 | 0.00 | 100 | 1016.8 |
| 20260902132733 | 80 | 192 | 1.0 | 4.0 | 0.00 | 0.00 | 0.00 | 100 | 1016.9 |
| 20260902132235 | 80 | 137 | 0.0 | 3.0 | 0.00 | 0.00 | 0.00 | 100 | 1016.9 |
| 20260902131734 | 80 | 137 | 0.0 | 1.0 | 0.00 | 0.00 | 0.00 | 100 | 1016.8 |
| 20260902131232 | 79 | 139 | 0.0 | 3.0 | 0.00 | 0.00 | 0.00 | 100 | 1016.9 |
| 20260902130731 | 79 | 106 | 0.0 | 3.0 | 0.00 | 0.00 | 0.00 | 100 | 1016.8 |
| 20260902130230 | 79 | 96 | 1.0 | 3.0 | 0.00 | 0.00 | 0.00 | 100 | 1016.8 |
| 20260902125729 | 78 | 357 | 1.0 | 3.0 | 0.00 | 0.00 | 0.00 | 100 | 1016.8 |
| 20260902125448 | 78 | 106 | 0.0 | 3.0 | 0.00 | 0.00 | 0.00 | 100 | 1016.8 |
| 20260902124954 | 78 | 83 | 0.0 | 3.0 | 0.00 | 0.00 | 0.00 | 100 | 1016.6 |
| 20260902124447 | 78 | 80 | 0.0 | 3.0 | 0.00 | 0.00 | 0.00 | 100 | 1016.5 |
| 20260902123726 | 78 | 78 | 0.0 | 1.0 | 0.00 | 0.00 | 0.00 | 100 | 1016.4 |
| 20260902123226 | 78 | 87 | 0.0 | 0.0 | 0.00 | 0.00 | 0.00 | 100 | 1016.4 |
| 20260902122725 | 77 | 81 | 0.0 | 0.0 | 0.00 | 0.00 | 0.00 | 100 | 1016.3 |
| 20260902122225 | 77 | 85 | 0.0 | 0.0 | 0.00 | 0.00 | 0.00 | 100 | 1016.2 |
| 20260902121726 | 77 | 137 | 0.0 | 0.0 | 0.00 | 0.00 | 0.00 | 100 | 1016.2 |
| 20260902121225 | 76 | 83 | 0.0 | 0.0 | 0.00 | 0.00 | 0.00 | 100 | 1016.1 |
| 20260902120726 | 76 | 86 | 0.0 | 0.0 | 0.00 | 0.00 | 0.00 | 100 | 1016.2 |
| 20260902120222 | 76 | 99 | 0.0 | 0.0 | 0.00 | 0.00 | 0.00 | 100 | 1016.1 |
| 20260902115721 | 76 | 165 | 0.0 | 0.0 | 0.00 | 0.00 | 0.00 | 100 | 1016.1 |
| 20260902115439 | 76 | 165 | 0.0 | 0.0 | 0.00 | 0.00 | 0.00 | 100 | 1015.9 |
| 20260902114722 | 76 | 165 | 0.0 | 0.0 | 0.00 | 0.00 | 0.00 | 100 | 1015.8 |
| 20260902114443 | 76 | 165 | 0.0 | 0.0 | 0.00 | 0.00 | 0.00 | 100 | 1015.6 |
| 20260902113943 | 76 | 165 | 0.0 | 0.0 | 0.00 | 0.00 | 0.00 | 100 | 1015.6 |
| 20260902113222 | 76 | 165 | 0.0 | 0.0 | 0.00 | 0.00 | 0.00 | 100 | 1015.5 |
| 20260902112946 | 76 | 165 | 0.0 | 0.0 | 0.00 | 0.00 | 0.00 | 100 | 1015.4 |
| 20260902112222 | 76 | 165 | 0.0 | 0.0 | 0.00 | 0.00 | 0.00 | 100 | 1015.4 |
| 20260902111717 | 76 | 165 | 0.0 | 0.0 | 0.00 | 0.00 | 0.00 | 100 | 1015.5 |
| 20260902111216 | 76 | 165 | 0.0 | 0.0 | 0.00 | 0.00 | 0.00 | 100 | 1015.5 |
| 20260902110718 | 76 | 165 | 0.0 | 0.0 | 0.00 | 0.00 | 0.00 | 100 | 1015.4 |
| 20260902110217 | 76 | 165 | 0.0 | 0.0 | 0.00 | 0.00 | 0.00 | 100 | 1015.3 |
| 20260902105716 | 76 | 165 | 0.0 | 0.0 | 0.00 | 0.00 | 0.00 | 100 | 1015.2 |
| 20260902105214 | 76 | 165 | 0.0 | 0.0 | 0.00 | 0.00 | 0.00 | 100 | 1015.2 |
| 20260902104713 | 76 | 165 | 0.0 | 0.0 | 0.00 | 0.00 | 0.00 | 100 | 1015.1 |
| 20260902104214 | 76 | 165 | 0.0 | 0.0 | 0.00 | 0.00 | 0.00 | 100 | 1015.2 |
| 20260902103713 | 76 | 165 | 0.0 | 0.0 | 0.00 | 0.00 | 0.00 | 100 | 1015.2 |
| 20260902103426 | 76 | 165 | 0.0 | 0.0 | 0.00 | 0.00 | 0.00 | 100 | 1015.2 |
| 20260902102713 | 76 | 165 | 0.0 | 0.0 | 0.00 | 0.00 | 0.00 | 100 | 1015.2 |
| 20260902102211 | 76 | 165 | 0.0 | 0.0 | 0.00 | 0.00 | 0.00 | 100 | 1015.3 |
| 20260902101931 | 76 | 165 | 0.0 | 0.0 | 0.00 | 0.00 | 0.00 | 100 | 1015.1 |
| 20260902101207 | 76 | 165 | 0.0 | 0.0 | 0.00 | 0.00 | 0.00 | 100 | 1015.1 |
| 20260902100701 | 76 | 165 | 0.0 | 0.0 | 0.00 | 0.00 | 0.00 | 100 | 1014.9 |
| 20260902100155 | 76 | 165 | 0.0 | 0.0 | 0.00 | 0.00 | 0.00 | 100 | 1015.0 |
| 20260902095649 | 76 | 165 | 0.0 | 0.0 | 0.00 | 0.00 | 0.00 | 100 | 1015.1 |
| 20260902095143 | 77 | 165 | 0.0 | 0.0 | 0.00 | 0.00 | 0.00 | 100 | 1015.1 |
| 20260902094637 | 77 | 165 | 0.0 | 0.0 | 0.00 | 0.00 | 0.00 | 100 | 1015.0 |
| 20260902094131 | 77 | 165 | 0.0 | 0.0 | 0.00 | 0.00 | 0.00 | 100 | 1015.0 |
| 20260902093625 | 77 | 165 | 0.0 | 0.0 | 0.00 | 0.00 | 0.00 | 100 | 1014.9 |
| 20260902093119 | 77 | 165 | 0.0 | 0.0 | 0.00 | 0.00 | 0.00 | 100 | 1014.9 |
| 20260902092837 | 76 | 165 | 0.0 | 0.0 | 0.00 | 0.00 | 0.00 | 100 | 1014.9 |
| 20260902092107 | 76 | 165 | 0.0 | 0.0 | 0.00 | 0.00 | 0.00 | 100 | 1014.9 |
| 20260902091827 | 76 | 165 | 0.0 | 0.0 | 0.00 | 0.00 | 0.00 | 100 | 1015.0 |
| 20260902091055 | 76 | 165 | 0.0 | 0.0 | 0.00 | 0.00 | 0.00 | 100 | 1015.0 |
| 20260902090549 | 76 | 165 | 0.0 | 0.0 | 0.00 | 0.00 | 0.00 | 100 | 1014.8 |
| 20260902090044 | 77 | 165 | 0.0 | 0.0 | 0.00 | 0.00 | 0.00 | 100 | 1014.9 |
| 20260902085538 | 77 | 165 | 0.0 | 0.0 | 0.00 | 0.00 | 0.00 | 100 | 1014.9 |
| 20260902085031 | 77 | 165 | 0.0 | 0.0 | 0.00 | 0.00 | 0.00 | 100 | 1014.9 |
| 20260902084525 | 77 | 165 | 0.0 | 0.0 | 0.00 | 0.00 | 0.00 | 100 | 1014.8 |
| 20260902084019 | 77 | 165 | 0.0 | 0.0 | 0.00 | 0.00 | 0.00 | 100 | 1014.9 |
| 20260902083513 | 77 | 165 | 0.0 | 0.0 | 0.00 | 0.00 | 0.00 | 100 | 1014.9 |
| 20260902083241 | 77 | 165 | 0.0 | 0.0 | 0.00 | 0.00 | 0.00 | 100 | 1014.9 |
| 20260902082501 | 77 | 165 | 0.0 | 0.0 | 0.00 | 0.00 | 0.00 | 100 | 1014.9 |
| 20260902081955 | 78 | 165 | 0.0 | 0.0 | 0.00 | 0.00 | 0.00 | 100 | 1014.9 |
| 20260902081450 | 78 | 165 | 0.0 | 0.0 | 0.00 | 0.00 | 0.00 | 100 | 1014.9 |
| 20260902080943 | 78 | 165 | 0.0 | 0.0 | 0.00 | 0.00 | 0.00 | 100 | 1015.0 |
| 20260902080437 | 78 | 165 | 0.0 | 0.0 | 0.00 | 0.00 | 0.00 | 100 | 1015.1 |
| 20260902080149 | 78 | 165 | 0.0 | 0.0 | 0.00 | 0.00 | 0.00 | 99 | 1015.1 |
| 20260902075425 | 78 | 165 | 0.0 | 0.0 | 0.00 | 0.00 | 0.00 | 99 | 1015.2 |
| 20260902075134 | 78 | 165 | 0.0 | 0.0 | 0.00 | 0.00 | 0.00 | 100 | 1015.2 |
| 20260902074413 | 78 | 165 | 0.0 | 0.0 | 0.00 | 0.00 | 0.00 | 100 | 1015.3 |
| 20260902074129 | 78 | 165 | 0.0 | 0.0 | 0.00 | 0.00 | 0.00 | 100 | 1015.3 |
| 20260902073401 | 78 | 172 | 0.0 | 0.0 | 0.00 | 0.00 | 0.00 | 100 | 1015.3 |
| 20260902072855 | 78 | 172 | 0.0 | 1.0 | 0.00 | 0.00 | 0.00 | 100 | 1015.4 |
| 20260902072349 | 78 | 172 | 0.0 | 1.0 | 0.00 | 0.00 | 0.00 | 100 | 1015.1 |
| 20260902072112 | 78 | 171 | 0.0 | 1.0 | 0.00 | 0.00 | 0.00 | 100 | 1015.1 |
| 20260902071337 | 78 | 174 | 0.0 | 0.0 | 0.00 | 0.00 | 0.00 | 100 | 1015.1 |
| 20260902070831 | 78 | 174 | 0.0 | 0.0 | 0.00 | 0.00 | 0.00 | 99 | 1015.2 |
| 20260902070325 | 78 | 174 | 0.0 | 0.0 | 0.00 | 0.00 | 0.00 | 99 | 1015.0 |
| 20260902065819 | 78 | 174 | 0.0 | 1.0 | 0.00 | 0.00 | 0.00 | 99 | 1014.9 |
| 20260902065313 | 78 | 177 | 0.0 | 1.0 | 0.00 | 0.00 | 0.00 | 99 | 1015.0 |
| 20260902065252 | 78 | 171 | 0.0 | 0.0 | 0.00 | 0.00 | 0.00 | 99 | 1015.0 |
| 20260902064301 | 78 | 171 | 0.0 | 0.0 | 0.00 | 0.00 | 0.00 | 99 | 1015.1 |
| 20260902064240 | 78 | 171 | 0.0 | 0.0 | 0.00 | 0.00 | 0.00 | 99 | 1015.3 |
| 20260902063249 | 78 | 171 | 0.0 | 0.0 | 0.00 | 0.00 | 0.00 | 99 | 1015.4 |
| 20260902062743 | 78 | 173 | 0.0 | 0.0 | 0.00 | 0.00 | 0.00 | 99 | 1015.4 |
| 20260902062237 | 78 | 172 | 0.0 | 0.0 | 0.00 | 0.00 | 0.00 | 98 | 1015.3 |
| 20260902061731 | 78 | 172 | 0.0 | 0.0 | 0.00 | 0.00 | 0.00 | 98 | 1015.1 |
| 20260902061717 | 78 | 172 | 0.0 | 0.0 | 0.00 | 0.00 | 0.00 | 98 | 1015.1 |
| 20260902060720 | 78 | 172 | 0.0 | 0.0 | 0.00 | 0.00 | 0.00 | 98 | 1015.1 |